DRAGON CRS-25 DEB

Last updated on Thu Sep 01 2022 00:02:07 GMT+0000 (Coordinated Universal Time)

1 53584U 22081B 22243.11723149 .11486784 12406-4 25548-3 0 9992 2 53584 51.6220 320.1959 0013738 231.4746 130.9216 16.45340042 7380

Satellite not in orbit